Casper, WY

8:36 PM MDT on September 22, 2017 (GMT -0600)
Natrona County International

Weather History for KCPR - May, 2013

Change the Weather History Date:

Monday, May 20, 2013

  Actual Average Record
Temperature  
Mean Temperature 49 °F 54 °F  
Max Temperature 54 °F 69 °F 89 °F (1964)
Min Temperature 43 °F 39 °F 24 °F (2003)
Degree Days  
Heating Degree Days 16 12  
Month to date heating degree days 241 293  
Since 1 July heating degree days 7104 7335  
Cooling Degree Days 0 0  
Month to date cooling degree days 10 0  
Year to date cooling degree days 10 0  
Moisture  
Dew Point 41 °F    
Average Humidity 69    
Maximum Humidity 92    
Minimum Humidity 46    
Precipitation  
Precipitation 0.21 in 0.07 in 0.81 in (1975)
Month to date precipitation 1.79 1.31  
Year to date precipitation 5.95 4.50  
Snow  
Snow 0.00 in 0.00 in - ()
Month to date snowfall 3.5 2.6  
Since 1 July snowfall 85.7 74.5  
Snow Depth 0.00 in    
Sea Level Pressure  
Sea Level Pressure 29.97 in    
Wind  
Wind Speed 11 mph (North)    
Max Wind Speed 21 mph    
Max Gust Speed 33 mph    
Visibility 9 miles    
Events Rain    
T = Trace of Precipitation, MM = Missing Value Source: NWS Daily Summary

Daily Weather History Graph

Daily Weather History Graph

Search for Another Location

Airport or City:

Trip Planner

Search our weather history database for the weather conditions in past years. The results will help you decide how hot, cold, wet, or windy it might be!

Date:

Astronomy

May. 20, 2013 Rise Set
Actual Time 5:37 AM MDT 8:27 PM MDT
Civil Twilight 5:04 AM MDT 9:00 PM MDT
Nautical Twilight 4:22 AM MDT 9:42 PM MDT
Astronomical Twilight 3:34 AM MDT 10:31 PM MDT
Moon 3:31 PM MDT (5/20) 2:41 AM MDT (5/20)
Length of Visible Light 15h 56m
Length of Day
14h 49m
Waxing Gibbous, 75% of the Moon is Illuminated
May 20
Waxing Gibbous
May 24
Full
May 31
Last Quarter
Jun 8
New
Jun 16
First Quarter

Hourly Weather History & Observations

Time (MDT) Temp. Windchill Dew Point Humidity Pressure Visibility Wind Dir Wind Speed Gust Speed Precip Events Conditions
12:03 AM 46.4 °F 42.9 °F 42.8 °F 87% 29.95 in 2.5 mi NNW 6.9 mph - 0.03 in Rain Rain
12:17 AM 46.4 °F 40.7 °F 42.8 °F 87% 29.96 in 7.0 mi North 12.7 mph 19.6 mph 0.06 in Rain Light Rain
12:44 AM 46.4 °F 40.4 °F 42.8 °F 87% 29.95 in 10.0 mi NNW 13.8 mph - 0.06 in Rain Light Rain
12:53 AM 46.0 °F 39.9 °F 42.1 °F 86% 29.87 in 10.0 mi NW 13.8 mph - 0.06 in   Overcast
1:07 AM 44.6 °F 38.8 °F 42.8 °F 93% 29.95 in 10.0 mi NW 11.5 mph - N/A   Overcast
1:17 AM 44.6 °F 39.2 °F 42.8 °F 93% 29.96 in 9.0 mi NW 10.4 mph - 0.00 in Rain Light Rain
1:40 AM 44.6 °F 39.7 °F 42.8 °F 93% 29.95 in 10.0 mi WNW 9.2 mph - 0.00 in Rain Light Rain
1:53 AM 44.6 °F 40.7 °F 42.8 °F 93% 29.95 in 7.0 mi WNW 6.9 mph - N/A Rain Light Rain
2:53 AM 45.0 °F 41.8 °F 42.1 °F 90% 29.90 in 10.0 mi NW 5.8 mph - 0.00 in Rain Light Rain
3:25 AM 44.6 °F 41.4 °F 42.8 °F 93% 29.96 in 9.0 mi WNW 5.8 mph - 0.01 in Rain Light Rain
3:43 AM 44.6 °F 41.4 °F 42.8 °F 93% 29.96 in 4.0 mi WNW 5.8 mph - 0.02 in Rain Light Rain
3:53 AM 44.1 °F 40.1 °F 42.1 °F 93% 29.90 in 4.0 mi WNW 6.9 mph - 0.03 in Rain Light Rain
4:40 AM 44.6 °F - 42.8 °F 93% 29.95 in 6.0 mi Calm Calm - 0.03 in Rain Light Rain
4:53 AM 44.6 °F 43.1 °F 42.8 °F 93% 29.95 in 10.0 mi SW 3.5 mph - N/A Rain Light Rain
5:45 AM 44.6 °F - 42.8 °F 93% 29.97 in 10.0 mi Calm Calm - 0.00 in   Overcast
5:53 AM 44.6 °F 40.2 °F 42.8 °F 93% 29.97 in 6.0 mi NE 8.1 mph - N/A Rain Light Rain
6:10 AM 44.6 °F 40.2 °F 42.8 °F 93% 29.98 in 3.0 mi NNE 8.1 mph - 0.06 in Rain Light Rain
6:23 AM 44.6 °F 41.4 °F 42.8 °F 93% 29.98 in 8.0 mi NNE 5.8 mph - 0.07 in Rain Light Rain
6:30 AM 44.6 °F 41.4 °F 42.8 °F 93% 29.98 in 10.0 mi NNE 5.8 mph - 0.07 in Rain Light Rain
6:53 AM 45.0 °F 41.2 °F 42.1 °F 90% 29.92 in 10.0 mi North 6.9 mph - 0.07 in   Overcast
7:04 AM 44.6 °F 38.8 °F 41.0 °F 87% 29.99 in 7.0 mi North 11.5 mph - 0.00 in Rain Light Rain
7:53 AM 44.1 °F 39.0 °F 42.1 °F 93% 29.95 in 10.0 mi North 9.2 mph - 0.03 in   Overcast
8:53 AM 44.6 °F 40.2 °F 41.0 °F 87% 30.00 in 9.0 mi NNE 8.1 mph - N/A Rain Light Rain
9:40 AM 44.6 °F 40.2 °F 42.8 °F 93% 30.00 in 10.0 mi North 8.1 mph - 0.01 in Rain Light Rain
9:53 AM 46.9 °F - 42.1 °F 83% 29.95 in 10.0 mi North 8.1 mph - 0.01 in   Overcast
10:34 AM 46.4 °F 43.5 °F 41.0 °F 81% 30.01 in 10.0 mi North 5.8 mph - 0.00 in   Overcast
10:53 AM 46.9 °F - 42.1 °F 83% 29.96 in 10.0 mi NNE 10.4 mph - 0.00 in Rain Light Rain
11:09 AM 44.6 °F 37.2 °F 41.0 °F 87% 30.02 in 5.0 mi North 17.3 mph - 0.00 in Rain Light Rain
11:30 AM 46.4 °F 38.5 °F 42.8 °F 87% 30.01 in 8.0 mi North 21.9 mph - 0.02 in Rain Light Rain
11:53 AM 48.0 °F - 42.1 °F 80% 29.96 in 9.0 mi North 20.7 mph 27.6 mph 0.02 in Rain Light Rain
12:53 PM 51.1 °F - 43.0 °F 74% 29.95 in 10.0 mi North 11.5 mph - 0.00 in   Mostly Cloudy
1:53 PM 48.0 °F - 42.1 °F 80% 29.97 in 6.0 mi North 15.0 mph 21.9 mph 0.00 in Rain Light Rain
2:53 PM 50.0 °F - 39.9 °F 68% 29.97 in 10.0 mi NNE 21.9 mph 29.9 mph 0.02 in   Overcast
3:53 PM 51.1 °F - 35.1 °F 54% 29.97 in 10.0 mi North 18.4 mph 26.5 mph N/A   Scattered Clouds
4:53 PM 52.0 °F - 34.0 °F 50% 29.97 in 10.0 mi North 10.4 mph - N/A   Overcast
5:53 PM 53.1 °F - 34.0 °F 48% 29.97 in 10.0 mi North 11.5 mph - N/A   Overcast
6:53 PM 51.1 °F - 33.1 °F 50% 29.98 in 10.0 mi North 13.8 mph - N/A   Mostly Cloudy
7:53 PM 48.0 °F - 36.0 °F 63% 30.01 in 10.0 mi North 12.7 mph - N/A   Overcast
8:53 PM 46.0 °F 40.6 °F 35.1 °F 66% 30.04 in 10.0 mi North 11.5 mph - N/A   Overcast
9:53 PM 45.0 °F 38.5 °F 37.0 °F 74% 30.05 in 10.0 mi North 13.8 mph - N/A   Overcast
10:53 PM 43.0 °F 37.7 °F 36.0 °F 76% 30.07 in 10.0 mi North 9.2 mph - N/A   Overcast
11:53 PM 43.0 °F 38.2 °F 36.0 °F 76% 30.06 in 10.0 mi NNW 8.1 mph - N/A   Overcast